CST,Max TemperatureF,Mean TemperatureF,Min TemperatureF,Max Dew PointF,MeanDew PointF,Min DewpointF,Max Humidity, Mean Humidity, Min Humidity, Max Sea Level PressureIn, Mean Sea Level PressureIn, Min Sea Level PressureIn, Max VisibilityMiles, Mean VisibilityMiles, Min VisibilityMiles, Max Wind SpeedMPH, Mean Wind SpeedMPH, Max Gust SpeedMPH,PrecipitationIn, CloudCover, Events, WindDirDegrees
2013-11-1,68,52,37,48,41,37,100,75,37,30.05,29.89,29.81,10,9,4,14,2,20,0.00,0,,305
2013-11-2,57,44,32,39,36,32,100,74,38,30.26,30.18,30.05,10,10,7,17,5,23,0.00,0,,322
2013-11-3,60,46,32,41,36,32,100,73,42,30.23,30.14,30.02,10,10,7,15,4,25,0.00,0,,150
2013-11-4,59,54,50,52,46,41,100,77,63,30.15,30.08,30.02,10,10,5,16,10,24,0.00,5,Rain,149
2013-11-5,60,56,51,61,55,52,100,96,88,30.14,30.05,29.96,10,7,2,13,7,18,0.43,8,,138
2013-11-6,60,46,32,61,39,32,100,88,66,30.38,30.21,29.91,10,9,3,18,10,24,0.31,5,,332
2013-11-7,60,44,28,39,34,28,100,81,39,30.47,30.41,30.36,10,10,7,6,0,,0.00,0,,275
2013-11-8,64,48,32,41,36,32,100,69,34,30.36,30.23,30.11,10,10,10,18,4,25,0.00,0,,173
2013-11-9,68,56,44,45,42,39,87,65,37,30.29,30.18,30.11,10,10,10,9,3,,0.00,3,,175
2013-11-10,69,56,42,46,44,41,100,73,38,30.37,30.31,30.28,10,10,10,7,0,,0.00,2,,157
2013-11-11,68,56,42,54,47,39,100,76,52,30.41,30.26,30.19,10,10,7,18,2,28,0.00,6,,290
2013-11-12,42,32,23,37,22,16,86,62,36,30.75,30.66,30.43,10,10,10,18,12,29,0.00,2,,9
2013-11-13,48,32,17,25,21,18,100,65,34,30.70,30.55,30.34,10,10,10,10,2,,0.00,0,,172
2013-11-14,53,38,24,37,26,21,93,61,33,30.34,30.18,30.05,10,10,5,13,3,20,0.01,1,Rain,170
2013-11-15,60,50,41,48,43,34,100,78,55,30.05,29.95,29.85,10,9,3,14,5,18,0.13,3,,147
2013-11-16,69,60,51,63,57,50,94,84,68,29.86,29.73,29.63,10,10,2,20,12,31,0.03,5,,164
2013-11-17,71,56,41,63,45,23,83,52,27,30.13,29.80,29.59,10,10,10,23,13,38,0.00,2,,271
2013-11-18,66,50,33,37,30,25,93,55,24,30.27,30.22,30.12,10,9,0,10,3,,0.00,0,,48
2013-11-19,55,47,39,34,29,21,81,48,26,30.24,30.16,30.04,10,10,10,16,5,25,0.00,2,,129
2013-11-20,59,50,42,43,32,23,61,48,35,30.05,29.98,29.89,10,10,5,18,11,26,0.02,5,,150
2013-11-21,55,45,35,52,47,34,100,91,58,30.31,30.08,29.98,10,8,2,17,7,28,0.33,7,Rain,97
2013-11-22,35,34,32,34,31,30,100,95,93,30.52,30.46,30.31,10,8,4,21,13,26,0.02,8,Snow,1
2013-11-23,37,32,26,30,24,14,93,71,38,30.67,30.60,30.52,10,10,10,15,9,24,0.01,3,,19
2013-11-24,32,26,21,19,15,12,74,60,47,30.67,30.55,30.34,10,10,10,12,5,16,0.00,3,,66
2013-11-25,35,32,28,32,26,14,100,78,48,30.35,30.26,30.20,10,9,5,7,3,,0.00,7,Snow,144
2013-11-26,46,37,28,32,27,16,100,74,49,30.36,30.22,30.15,10,10,10,23,7,32,0.00,3,,344
2013-11-27,37,27,17,19,15,10,93,66,36,30.46,30.38,30.32,10,10,10,12,5,,0.00,0,,339
2013-11-28,53,36,19,28,23,16,93,70,38,30.46,30.36,30.31,10,10,10,10,2,17,0.00,0,,209
2013-11-29,53,37,21,30,25,19,100,70,30,30.52,30.42,30.33,10,10,10,12,2,,0.00,0,,166
2013-11-30,59,46,33,45,37,28,100,76,55,30.34,30.22,30.14,10,10,7,13,3,20,0.00,1,,180